Location: Cisewo
(53.3833°N, 14.9000°E)
Time: 11:29:49
(UTC+00:00)

Cosmos 1745 Rocket - Pass Details

Date: 18 April 2021
Orbit: 952 x 998 km, 83.0° (Epoch: 15 May)

Event Time Altitude Azimuth Distance (km) Brightness Sun altitude
Rises 21:45:53 0° 348° (NNW) 3,726 8.5 -23.6°
Reaches altitude 10° 21:48:26 10° 348° (NNW) 2,768 7.5 -23.7°
Maximum altitude 21:54:47 80° 263° (W) 1,006 4.0 -24.0°
Enters shadow 21:56:33 50° 185° (S) 1,232 4.1 -24.1°
